Time,TemperatureF,DewpointF,PressureIn,WindDirection,WindDirectionDegrees,WindSpeedMPH,WindSpeedGustMPH,Humidity,HourlyPrecipIn,Conditions,Clouds,dailyrainin,SoftwareType,DateUTC
2013-01-21 00:22:00,7.9,1.7,30.19,ESE,112,1.7,-999.0,75,-99.99,,,0.00,Acu-Link.com,2013-01-21 07:22:00,
2013-01-21 00:37:00,7.3,1.1,30.19,ESE,112,1.1,-999.0,75,-99.99,,,0.00,Acu-Link.com,2013-01-21 07:37:00,
2013-01-21 00:53:00,7.5,1.5,30.19,ESE,112,0.0,-999.0,76,-99.99,,,0.00,Acu-Link.com,2013-01-21 07:53:00,
2013-01-21 01:08:00,7.7,1.5,30.19,ESE,112,1.1,-999.0,75,-99.99,,,0.00,Acu-Link.com,2013-01-21 08:08:00,
2013-01-21 01:23:00,7.5,1.3,30.19,ESE,112,0.0,-999.0,75,-99.99,,,0.00,Acu-Link.com,2013-01-21 08:23:00,
2013-01-21 01:39:00,7.0,0.8,30.19,ESE,112,0.0,-999.0,75,-99.99,,,0.00,Acu-Link.com,2013-01-21 08:39:00,
2013-01-21 01:54:00,6.4,0.5,30.19,ESE,112,1.1,-999.0,76,-99.99,,,0.00,Acu-Link.com,2013-01-21 08:54:00,
2013-01-21 02:17:00,6.4,0.5,30.18,ESE,112,1.7,-999.0,76,-99.99,,,0.00,Acu-Link.com,2013-01-21 09:17:00,
2013-01-21 02:47:00,5.4,-0.8,30.19,ESE,112,0.0,-999.0,75,-99.99,,,0.00,Acu-Link.com,2013-01-21 09:47:00,
2013-01-21 03:02:00,5.5,-0.1,30.18,ESE,112,0.0,-999.0,77,-99.99,,,0.00,Acu-Link.com,2013-01-21 10:02:00,
2013-01-21 03:33:00,3.6,-2.8,30.18,ESE,112,0.0,-999.0,74,-99.99,,,0.00,Acu-Link.com,2013-01-21 10:33:00,
2013-01-21 03:48:00,4.5,-1.4,30.18,ESE,112,0.0,-999.0,76,-99.99,,,0.00,Acu-Link.com,2013-01-21 10:48:00,
2013-01-21 04:03:00,4.5,-1.4,30.18,ESE,112,2.2,-999.0,76,-99.99,,,0.00,Acu-Link.com,2013-01-21 11:03:00,
2013-01-21 04:19:00,4.5,-1.4,30.19,ESE,112,1.7,-999.0,76,-99.99,,,0.00,Acu-Link.com,2013-01-21 11:19:00,
2013-01-21 04:34:00,4.6,-1.3,30.19,ESE,112,0.0,-999.0,76,-99.99,,,0.00,Acu-Link.com,2013-01-21 11:34:00,
2013-01-21 04:49:00,4.3,-1.6,30.19,ESE,112,1.1,-999.0,76,-99.99,,,0.00,Acu-Link.com,2013-01-21 11:49:00,
2013-01-21 05:05:00,4.1,-1.8,30.19,ESE,112,1.1,-999.0,76,-99.99,,,0.00,Acu-Link.com,2013-01-21 12:05:00,
2013-01-21 05:20:00,4.1,-1.8,30.19,ESE,112,0.0,-999.0,76,-99.99,,,0.00,Acu-Link.com,2013-01-21 12:20:00,
2013-01-21 05:36:00,3.0,-3.1,30.19,ESE,112,0.0,-999.0,75,-99.99,,,0.00,Acu-Link.com,2013-01-21 12:36:00,
2013-01-21 05:51:00,3.4,-2.4,30.20,ESE,112,1.7,-999.0,76,-99.99,,,0.00,Acu-Link.com,2013-01-21 12:51:00,
2013-01-21 06:07:00,3.7,-2.1,30.20,ESE,112,1.7,-999.0,76,-99.99,,,0.00,Acu-Link.com,2013-01-21 13:07:00,
2013-01-21 06:22:00,3.4,-2.4,30.20,ESE,112,0.0,-999.0,76,-99.99,,,0.00,Acu-Link.com,2013-01-21 13:22:00,
2013-01-21 06:37:00,4.1,-1.8,30.19,ESE,112,0.0,-999.0,76,-99.99,,,0.00,Acu-Link.com,2013-01-21 13:37:00,
2013-01-21 06:53:00,3.9,-1.9,30.20,ESE,112,1.7,-999.0,76,-99.99,,,0.00,Acu-Link.com,2013-01-21 13:53:00,
2013-01-21 07:09:00,3.6,-2.5,30.20,ESE,112,1.7,-999.0,75,-99.99,,,0.00,Acu-Link.com,2013-01-21 14:09:00,
2013-01-21 07:24:00,3.2,-2.9,30.20,ESE,112,0.0,-999.0,75,-99.99,,,0.00,Acu-Link.com,2013-01-21 14:24:00,
2013-01-21 07:40:00,3.2,-2.9,30.21,ESE,112,0.0,-999.0,75,-99.99,,,0.00,Acu-Link.com,2013-01-21 14:40:00,
2013-01-21 07:55:00,3.9,-2.2,30.21,ESE,112,1.7,-999.0,75,-99.99,,,0.00,Acu-Link.com,2013-01-21 14:55:00,
2013-01-21 08:10:00,8.1,2.1,30.21,ESE,112,1.7,-999.0,76,-99.99,,,0.00,Acu-Link.com,2013-01-21 15:10:00,
2013-01-21 08:26:00,13.6,6.9,30.22,ESE,112,1.7,-999.0,74,-99.99,,,0.00,Acu-Link.com,2013-01-21 15:26:00,
2013-01-21 08:41:00,17.2,6.8,30.22,ESE,112,0.0,-999.0,63,-99.99,,,0.00,Acu-Link.com,2013-01-21 15:41:00,
2013-01-21 08:57:00,20.3,8.3,30.24,ESE,112,2.2,-999.0,59,-99.99,,,0.00,Acu-Link.com,2013-01-21 15:57:00,
2013-01-21 09:12:00,21.4,8.2,30.23,ESE,112,0.0,-999.0,56,-99.99,,,0.00,Acu-Link.com,2013-01-21 16:12:00,
2013-01-21 09:27:00,17.2,4.6,30.23,ESE,112,2.7,-999.0,57,-99.99,,,0.00,Acu-Link.com,2013-01-21 16:27:00,
2013-01-21 09:43:00,21.4,7.0,30.24,ESE,112,2.7,-999.0,53,-99.99,,,0.00,Acu-Link.com,2013-01-21 16:43:00,
2013-01-21 09:58:00,22.5,8.4,30.24,ESE,112,1.1,-999.0,54,-99.99,,,0.00,Acu-Link.com,2013-01-21 16:58:00,
2013-01-21 10:14:00,23.5,7.6,30.24,ESE,112,0.0,-999.0,50,-99.99,,,0.00,Acu-Link.com,2013-01-21 17:14:00,
2013-01-21 10:29:00,27.5,10.4,30.22,ESE,112,3.7,-999.0,48,-99.99,,,0.00,Acu-Link.com,2013-01-21 17:29:00,
2013-01-21 10:45:00,28.0,9.9,30.22,NNW,337,4.2,-999.0,46,-99.99,,,0.00,Acu-Link.com,2013-01-21 17:45:00,
2013-01-21 11:00:00,26.1,8.7,30.23,NNW,337,2.7,-999.0,47,-99.99,,,0.00,Acu-Link.com,2013-01-21 18:00:00,
2013-01-21 11:16:00,27.5,9.9,30.22,NNW,337,1.7,-999.0,47,-99.99,,,0.00,Acu-Link.com,2013-01-21 18:16:00,
2013-01-21 11:31:00,28.8,11.1,30.21,NNW,337,2.2,-999.0,47,-99.99,,,0.00,Acu-Link.com,2013-01-21 18:31:00,
2013-01-21 11:46:00,32.5,13.0,30.20,NNW,337,3.2,-999.0,44,-99.99,,,0.00,Acu-Link.com,2013-01-21 18:46:00,
2013-01-21 12:02:00,32.7,12.2,30.18,NNW,337,2.2,-999.0,42,-99.99,,,0.00,Acu-Link.com,2013-01-21 19:02:00,
2013-01-21 12:17:00,36.3,11.9,30.18,SSW,202,2.7,-999.0,36,-99.99,,,0.00,Acu-Link.com,2013-01-21 19:17:00,
2013-01-21 12:33:00,36.1,11.1,30.16,SW,225,3.2,-999.0,35,-99.99,,,0.00,Acu-Link.com,2013-01-21 19:33:00,
2013-01-21 12:48:00,36.9,10.5,30.16,SW,225,0.0,-999.0,33,-99.99,,,0.00,Acu-Link.com,2013-01-21 19:48:00,
2013-01-21 13:04:00,39.2,11.1,30.16,SSW,202,0.0,-999.0,31,-99.99,,,0.00,Acu-Link.com,2013-01-21 20:04:00,
2013-01-21 13:19:00,39.6,10.8,30.16,SW,225,2.2,-999.0,30,-99.99,,,0.00,Acu-Link.com,2013-01-21 20:19:00,
2013-01-21 13:35:00,40.8,7.7,30.15,SW,225,2.2,-999.0,25,-99.99,,,0.00,Acu-Link.com,2013-01-21 20:35:00,
2013-01-21 13:50:00,40.8,10.3,30.14,SW,225,0.0,-999.0,28,-99.99,,,0.00,Acu-Link.com,2013-01-21 20:50:00,
2013-01-21 14:05:00,42.3,9.9,30.13,SSW,202,2.2,-999.0,26,-99.99,,,0.00,Acu-Link.com,2013-01-21 21:05:00,
2013-01-21 14:21:00,42.6,11.0,30.13,SSW,202,0.0,-999.0,27,-99.99,,,0.00,Acu-Link.com,2013-01-21 21:21:00,
2013-01-21 14:36:00,42.1,9.7,30.13,SW,225,0.0,-999.0,26,-99.99,,,0.00,Acu-Link.com,2013-01-21 21:36:00,
2013-01-21 14:51:00,42.8,11.2,30.13,SW,225,2.2,-999.0,27,-99.99,,,0.00,Acu-Link.com,2013-01-21 21:51:00,
2013-01-21 15:07:00,41.7,10.2,30.13,SW,225,2.2,-999.0,27,-99.99,,,0.00,Acu-Link.com,2013-01-21 22:07:00,
2013-01-21 15:22:00,43.0,11.3,30.13,SW,225,0.0,-999.0,27,-99.99,,,0.00,Acu-Link.com,2013-01-21 22:22:00,
2013-01-21 15:38:00,43.7,10.2,30.13,SW,225,0.0,-999.0,25,-99.99,,,0.00,Acu-Link.com,2013-01-21 22:38:00,
2013-01-21 15:53:00,44.1,12.3,30.13,SW,225,1.7,-999.0,27,-99.99,,,0.00,Acu-Link.com,2013-01-21 22:53:00,
2013-01-21 16:08:00,43.0,11.3,30.12,SW,225,2.2,-999.0,27,-99.99,,,0.00,Acu-Link.com,2013-01-21 23:08:00,
2013-01-21 16:23:00,42.8,12.0,30.12,SW,225,0.0,-999.0,28,-99.99,,,0.00,Acu-Link.com,2013-01-21 23:23:00,
2013-01-21 16:39:00,41.4,13.1,30.12,SSW,202,2.2,-999.0,31,-99.99,,,0.00,Acu-Link.com,2013-01-21 23:39:00,
2013-01-21 16:54:00,40.6,13.1,30.12,SSW,202,2.2,-999.0,32,-99.99,,,0.00,Acu-Link.com,2013-01-21 23:54:00,
2013-01-21 17:10:00,37.6,13.1,30.12,SSW,202,1.7,-999.0,36,-99.99,,,0.00,Acu-Link.com,2013-01-22 00:10:00,
2013-01-21 17:25:00,32.2,12.2,30.12,SE,135,4.7,-999.0,43,-99.99,,,0.00,Acu-Link.com,2013-01-22 00:25:00,
2013-01-21 17:40:00,31.1,12.8,30.12,SE,135,3.2,-999.0,46,-99.99,,,0.00,Acu-Link.com,2013-01-22 00:40:00,
2013-01-21 17:55:00,29.1,12.4,30.12,SE,135,4.7,-999.0,49,-99.99,,,0.00,Acu-Link.com,2013-01-22 00:55:00,
2013-01-21 18:11:00,28.9,12.2,30.12,ESE,112,4.7,-999.0,49,-99.99,,,0.00,Acu-Link.com,2013-01-22 01:11:00,
2013-01-21 18:26:00,26.8,11.6,30.13,ESE,112,3.7,-999.0,52,-99.99,,,0.00,Acu-Link.com,2013-01-22 01:26:00,
2013-01-21 18:42:00,26.8,11.6,30.14,ESE,112,4.7,-999.0,52,-99.99,,,0.00,Acu-Link.com,2013-01-22 01:42:00,
2013-01-21 18:58:00,25.9,11.2,30.14,South,180,1.7,-999.0,53,-99.99,,,0.00,Acu-Link.com,2013-01-22 01:58:00,
2013-01-21 19:13:00,25.0,10.7,30.14,South,180,2.7,-999.0,54,-99.99,,,0.00,Acu-Link.com,2013-01-22 02:13:00,
2013-01-21 19:29:00,24.3,10.5,30.14,South,180,1.7,-999.0,55,-99.99,,,0.00,Acu-Link.com,2013-01-22 02:29:00,
2013-01-21 19:44:00,24.3,10.9,30.14,South,180,4.7,-999.0,56,-99.99,,,0.00,Acu-Link.com,2013-01-22 02:44:00,
2013-01-21 20:00:00,24.4,11.0,30.15,SSE,157,4.2,-999.0,56,-99.99,,,0.00,Acu-Link.com,2013-01-22 03:00:00,
2013-01-21 20:23:00,23.9,10.1,30.17,SSE,157,0.0,-999.0,55,-99.99,,,0.00,Acu-Link.com,2013-01-22 03:23:00,
2013-01-21 20:38:00,22.8,9.9,30.17,SSE,157,1.1,-999.0,57,-99.99,,,0.00,Acu-Link.com,2013-01-22 03:38:00,
2013-01-21 20:54:00,22.5,9.6,30.16,SSE,157,3.2,-999.0,57,-99.99,,,0.00,Acu-Link.com,2013-01-22 03:54:00,
2013-01-21 21:09:00,21.0,8.6,30.18,SSE,157,1.7,-999.0,58,-99.99,,,0.00,Acu-Link.com,2013-01-22 04:09:00,
2013-01-21 21:25:00,19.4,8.2,30.18,SSE,157,1.7,-999.0,61,-99.99,,,0.00,Acu-Link.com,2013-01-22 04:25:00,
2013-01-21 21:40:00,19.4,8.5,30.18,SSE,157,3.2,-999.0,62,-99.99,,,0.00,Acu-Link.com,2013-01-22 04:40:00,
2013-01-21 21:56:00,19.9,8.7,30.19,SSE,157,3.2,-999.0,61,-99.99,,,0.00,Acu-Link.com,2013-01-22 04:56:00,
2013-01-21 22:27:00,17.8,7.4,30.19,SSE,157,0.0,-999.0,63,-99.99,,,0.00,Acu-Link.com,2013-01-22 05:27:00,
2013-01-21 22:43:00,17.6,7.9,30.19,SSE,157,0.0,-999.0,65,-99.99,,,0.00,Acu-Link.com,2013-01-22 05:43:00,
2013-01-21 22:58:00,16.5,6.8,30.19,SSE,157,2.2,-999.0,65,-99.99,,,0.00,Acu-Link.com,2013-01-22 05:58:00,
2013-01-21 23:13:00,16.0,6.7,30.19,SSE,157,1.7,-999.0,66,-99.99,,,0.00,Acu-Link.com,2013-01-22 06:13:00,
2013-01-21 23:29:00,16.3,7.0,30.19,SSE,157,0.0,-999.0,66,-99.99,,,0.00,Acu-Link.com,2013-01-22 06:29:00,
2013-01-21 23:44:00,15.4,6.1,30.19,SSE,157,1.1,-999.0,66,-99.99,,,0.00,Acu-Link.com,2013-01-22 06:44:00,